WetterOnline ( http://www.wetteronline.de )

Wetter aktuell Altusried

Aktuelles Wetter: Kempten (705m)

6-stündlich | Neueste Meldungen
Ortszeit Temperatur Wetter
Mo, 23.07. 14:00 20.7° C bewölkt
Mo, 23.07. 8:00 15.1° C bedeckt
Mo, 23.07. 2:00 15.7° C bedeckt
So, 22.07. 20:00 17.2° C leichter Regen
So, 22.07. 14:00 15.8° C Sprühregen
So, 22.07. 8:00 14.7° C bedeckt
So, 22.07. 2:00 15.3° C bedeckt
Sa, 21.07. 20:00 16.1° C Regen
Ortszeit Temperatur Wetter
Mo, 23.07. 15:30 21.4° C bewölkt
Mo, 23.07. 15:20 21.4° C bewölkt
Mo, 23.07. 15:10 21.5° C wolkig
Mo, 23.07. 15:00 22.6° C leicht bewölkt
Mo, 23.07. 14:50 22.6° C leicht bewölkt
Mo, 23.07. 14:40 21.5° C wolkig
Mo, 23.07. 14:30 22.1° C wolkig
Mo, 23.07. 14:00 20.7° C bewölkt
Mo, 23.07. 13:30 20.3° C bewölkt
Mo, 23.07. 13:00 21.5° C bewölkt
Mo, 23.07. 12:30 20.6° C bewölkt
Ortszeit Relative Feuchte Sichtweite
Mo, 23.07. 14:00 69% 15 km
Mo, 23.07. 8:00 94% 9 km
Mo, 23.07. 2:00 87% 21 km
So, 22.07. 20:00 77% 27 km
So, 22.07. 14:00 91% 5.0 km
So, 22.07. 8:00 93% 15 km
So, 22.07. 2:00 94% 11 km
Sa, 21.07. 20:00 92% 13 km
Ortszeit Relative Feuchte Sichtweite
Mo, 23.07. 15:30 62% 16 km
Mo, 23.07. 15:20 62% -
Mo, 23.07. 15:10 59% -
Mo, 23.07. 15:00 60% 16 km
Mo, 23.07. 14:50 60% -
Mo, 23.07. 14:40 61% -
Mo, 23.07. 14:30 64% 14 km
Mo, 23.07. 14:00 69% 15 km
Mo, 23.07. 13:30 67% 14 km
Mo, 23.07. 13:00 61% 15 km
Mo, 23.07. 12:30 63% 20 km
Ortszeit Niederschlagsmenge Niederschlagsart
Mo, 23.07. 14:00 0.1 l/m2 in 6 Std. Sprühregen
Mo, 23.07. 8:00 4 l/m2 in 12 Std. Regen
Mo, 23.07. 2:00 0.2 l/m2 in 6 Std. Regen
So, 22.07. 20:00 3 l/m2 in 12 Std. Regen
So, 22.07. 14:00 3 l/m2 in 6 Std. Regen
So, 22.07. 8:00 3 l/m2 in 12 Std. Regen
So, 22.07. 2:00 2 l/m2 in 6 Std. Regen
Sa, 21.07. 20:00 2 l/m2 in 12 Std. Regen
Ortszeit Niederschlagsmenge Niederschlagsart
Mo, 23.07. 15:30 0.1 l/m2 in 1 Std. Schneeregen
Mo, 23.07. 15:20 keine Meldung -
Mo, 23.07. 15:10 keine Meldung -
Mo, 23.07. 15:00 0.0 l/m2 in 1 Std. -
Mo, 23.07. 14:50 keine Meldung -
Mo, 23.07. 14:40 keine Meldung -
Mo, 23.07. 14:30 0.0 l/m2 in 1 Std. -
Mo, 23.07. 14:00 0.0 l/m2 in 1 Std. Sprühregen
Mo, 23.07. 13:30 0.0 l/m2 in 1 Std. -
Mo, 23.07. 13:00 0.0 l/m2 in 1 Std. -
Mo, 23.07. 12:30 0.0 l/m2 in 1 Std. -
Ortszeit Stärke Spitze Richtung
km/h Bft. km/h Grad Sektor
Mo, 23.07. 14:00 11 2 18 - -
Mo, 23.07. 8:00 4 1 7 - -
Mo, 23.07. 2:00 4 1 11 - -
So, 22.07. 20:00 4 1 25 - -
So, 22.07. 14:00 7 2 19 - -
So, 22.07. 8:00 9 2 19 - -
So, 22.07. 2:00 7 2 14 - -
Sa, 21.07. 20:00 4 1 29 - -
Ortszeit Stärke Spitze Richtung
km/h Bft. km/h Grad Sektor
Mo, 23.07. 15:30 7 2 14 - -
Mo, 23.07. 15:20 7 2 - - -
Mo, 23.07. 15:10 7 2 - - -
Mo, 23.07. 15:00 4 1 18 - -
Mo, 23.07. 14:50 4 1 - - -
Mo, 23.07. 14:40 7 2 - - -
Mo, 23.07. 14:30 4 1 14 - -
Mo, 23.07. 14:00 11 2 18 - -
Mo, 23.07. 13:30 11 2 18 - -
Mo, 23.07. 13:00 6 1 19 - -
Mo, 23.07. 12:30 6 1 11 - -
Ortszeit Untergrenze Bedeckung Gattung
total tief tief mittel hoch
Mo, 23.07. 14:00 2400 m 7/8 7/8 - - -
Mo, 23.07. 8:00 240 m 8/8 8/8 - - -
Mo, 23.07. 2:00 810 m 8/8 8/8 - - -
So, 22.07. 20:00 1140 m 8/8 8/8 - - -
So, 22.07. 14:00 180 m 8/8 8/8 - - -
So, 22.07. 8:00 330 m 8/8 8/8 - - -
So, 22.07. 2:00 750 m 8/8 8/8 - - -
Sa, 21.07. 20:00 870 m 8/8 8/8 - - -
Ortszeit Bedeckungsgrad in Achtel und Wolkenuntergrenze
Mo, 23.07. 15:30 1(1020m) 5(1410m) 7(2700m)
Mo, 23.07. 15:20 1(1020m) 5(1410m) 7(2700m)
Mo, 23.07. 15:10 2(1020m) 4(2100m) 6(2700m)
Mo, 23.07. 15:00 2(870m) 3(1080m) 6(3000m)
Mo, 23.07. 14:50 2(870m) 3(1080m) 4(1290m)
Mo, 23.07. 14:40 4(870m) 5(2400m)
Mo, 23.07. 14:30 1(840m) 6(2400m)
Mo, 23.07. 14:00 7(2400m) 7(8700m)
Mo, 23.07. 13:30 4(780m) 7(1380m) 7(2700m)
Mo, 23.07. 13:00 1(780m) 4(1500m) 7(2400m)
Mo, 23.07. 12:30 1(570m) 3(750m) 7(2400m)
Ortszeit Luftdruck NN (hPa) Tendenz (hPa in 3 Std.)
Mo, 23.07. 14:00 1016 - 0,1
Mo, 23.07. 8:00 1017 + 1,2
Mo, 23.07. 2:00 1016 0,0
So, 22.07. 20:00 1015 + 0,1
So, 22.07. 14:00 1015 + 0,7
So, 22.07. 8:00 1015 + 0,6
So, 22.07. 2:00 1014 - 0,1
Sa, 21.07. 20:00 1013 + 1,0
Ortszeit Luftdruck NN (hPa) Tendenz (hPa in 3 Std.)
Mo, 23.07. 15:30 1016 - 0,1
Mo, 23.07. 15:20 1016 keine Meldung
Mo, 23.07. 15:10 1016 keine Meldung
Mo, 23.07. 15:00 1016 - 0,3
Mo, 23.07. 14:50 1016 keine Meldung
Mo, 23.07. 14:40 1016 keine Meldung
Mo, 23.07. 14:30 1016 - 0,3
Mo, 23.07. 14:00 1016 - 0,1
Mo, 23.07. 13:30 1016 0,0
Mo, 23.07. 13:00 1016 + 0,2
Mo, 23.07. 12:30 1016 + 0,3
Ortszeit Schneehöhe (cm)
Mo, 23.07. 14:00 -
Mo, 23.07. 8:00 -
Mo, 23.07. 2:00 -
So, 22.07. 20:00 -
So, 22.07. 14:00 -
So, 22.07. 8:00 -
So, 22.07. 2:00 -
Sa, 21.07. 20:00 -
Ortszeit Schneehöhe (cm)
Mo, 23.07. 15:30 -
Mo, 23.07. 15:20 -
Mo, 23.07. 15:10 -
Mo, 23.07. 15:00 -
Mo, 23.07. 14:50 -
Mo, 23.07. 14:40 -
Mo, 23.07. 14:30 -
Mo, 23.07. 14:00 -
Mo, 23.07. 13:30 -
Mo, 23.07. 13:00 -
Mo, 23.07. 12:30 -
Link zu dieser Seite / Seite empfehlen

Das Wetter in ...